Regional Weather Roundup
Issued by NWS Upton, NY

Current Version | Previous Version | Graphics & Text | Print | Product List | Glossary Off
Versions: 1 2 3 4 5 6 7 8 9 10 11 12 13 14 15 16 17 18 19 20 21 22 23 24 25 26 27 28 29 30 31 32 33 34 35 36 37 38 39 40 41 42 43 44 45 46 47 48 49 50

000
ASUS41 KOKX 030105
RWROKX

REGIONAL WEATHER ROUNDUP
NATIONAL WEATHER SERVICE NEW YORK NY
800 PM EST MON MAR 02 2015

NOTE: "FAIR" INDICATES FEW OR NO CLOUDS BELOW 12,000 FEET WITH NO
SIGNIFICANT WEATHER AND/OR OBSTRUCTIONS TO VISIBILITY.

NYZ071-072-176-178-NJZ106-104-030200-
NEW YORK CITY METRO AREA


CITY           SKY/WX    TMP DP  RH WIND       PRES   REMARKS
CENTRAL PARK   CLEAR     33   9  36 NW9G20    30.30R WCI  25
LAGUARDIA APRT PTCLDY    33  11  39 NW20      30.27R WCI  21
KENNEDY INTL   PTCLDY    34  10  37 NW15      30.28R WCI  24
NEWARK/LIBERTY PTCLDY    32  11  41 NW12      30.29R WCI  23
BRNX BOT. GARD   N/A    N/A N/A N/A NW5       30.29R
TETERBORO      CLEAR     32   9  38 NW9G18    30.28R WCI  24
$$

NYZ177-179-078>081-030200-
LONG ISLAND NEW YORK

CITY           SKY/WX    TMP DP  RH WIND       PRES   REMARKS
FARMINGDALE    CLEAR     32  11  41 NW12G18   30.26R WCI  23
ISLIP          CLEAR     31  11  43 NW12G22   30.24R WCI  22
SHIRLEY        CLEAR     31  11  43 NW10      30.25R WCI  22
WESTHAMPTON    CLEAR     31  11  43 NW10      30.24R WCI  22
MONTAUK POINT  NOT AVBL
$$

NYZ052-065-067-030200-
HUDSON VALLEY

CITY           SKY/WX    TMP DP  RH WIND       PRES   REMARKS
WHITE PLAINS   CLEAR     28   9  44 NW18      30.23R WCI  15
NEWBURGH       CLEAR     27  12  54 NW20G33   30.27R WCI  13
MONTGOMERY     CLEAR     26   8  46 NW8       30.27R WCI  18
POUGHKEEPSIE   CLEAR     28   8  43 NW6       30.27R WCI  22
ALBANY         PTCLDY    25   8  48 NW15G23   30.29R WCI  13
$$

NJZ001-105-106-008-010-013-015-019>022-104-030200-
NEW JERSEY

CITY           SKY/WX    TMP DP  RH WIND       PRES   REMARKS
NEWARK/LIBERTY PTCLDY    32  11  41 NW12      30.29R WCI  23
TETERBORO      CLEAR     32   9  38 NW9G18    30.28R WCI  24
CALDWELL       CLEAR     31   7  36 NW7       30.29R WCI  24
MORRISTOWN     CLEAR     32   9  37 N8G14     30.29R WCI  25
SOMERVILLE     CLEAR     33   7  33 NW12G20   30.28R WCI  24
SUSSEX         CLEAR     29   7  39 N9        30.28R WCI  20
ANDOVER          N/A     28   6  39 VRB6      30.27R WCI  22
TRENTON        CLEAR     33  12  41 W5        30.29R WCI  29
MILLVILLE      CLEAR     33  16  49 W9        30.34R WCI  25
ATLANTIC CITY  NOT AVBL
WRIGHTSTOWN    CLEAR     32  14  47 NW7       30.27R WCI  26
TOMS RIVER     CLEAR     32  14  47 W9        30.30R WCI  24
BELMAR         CLEAR     32  12  43 NW7       30.28R WCI  26
$$

PAZ047>061-062-071-030200-
EASTERN PENNSYLVANIA

CITY           SKY/WX    TMP DP  RH WIND       PRES   REMARKS
PHILADELPHIA   CLEAR     35  15  44 W10       30.34R WCI  27
ALLENTOWN      CLEAR     28   7  41 NW6       30.31R WCI  22
SCRANTON       CLEAR     27   6  41 NW14G23   30.30R WCI  16
$$

CTZ002-004>006-009-010-012-RIZ004-006-007-MAZ004-011-015-030200-
SOUTHERN NEW ENGLAND
 IN CT

CITY           SKY/WX    TMP DP  RH WIND       PRES   REMARKS
BRADLEY INTL   PTCLDY    29   9  43 NW9G21    30.21R WCI  20
HARTFORD       PTCLDY    29  11  47 NW17G25   30.24R WCI  17
DANBURY        CLEAR     27   7  42 NW10G17   30.24R WCI  17
WTRBRY/OXFORD  CLEAR     27   7  43 NW14G23   30.22R WCI  15
BRIDGEPORT     CLEAR     30  11  45 NW12      30.24R WCI  20
MERIDEN        CLEAR     29  10  45 NW13G25   30.23R WCI  19
NEW HAVEN      CLEAR     31  11  43 NW6G16    30.23R WCI  25
CHESTER        FAIR      30  10  43 NW7G18    30.20R WCI  23
GROTON         CLEAR     28  12  51 NW13G21   30.21R WCI  17
WILLIMANTIC    PTCLDY    28   9  44 NW8G16    30.20R WCI  20

 IN RI

CITY           SKY/WX    TMP DP  RH WIND       PRES   REMARKS
PROVIDENCE     PTCLDY    29   9  43 NW12      30.18R WCI  19
BLOCK ISLAND   FAIR      30  10  43 NW17G31   30.19R WCI  18
WESTERLY       CLEAR     30   9  41 NW12G17   30.20R WCI  20

 IN MA

CITY           SKY/WX    TMP DP  RH WIND       PRES   REMARKS
BOSTON         PTCLDY    29  15  56 W12G24    30.14R WCI  19
WORCESTER      CLEAR     24  10  55 W20G30    30.10R WCI  10
WESTFIELD      PTCLDY    27   9  46 NW17G33   30.21R WCI  14
PROVINCETOWN   PTCLDY    32  18  55 NW22G35   30.12R WCI  19
NANTUCKET      CLEAR     31  15  52 W14       30.14R WCI  21
$$

ANZ330-335-338-340-345-350-353-355-030200-
COASTAL MARINE OBSERVATIONS


STATION/POSITION TIME  SKY/WX   TEMP    WIND        PRES    VSBY  WAVE
                                AIR SEA DIR/SP/G                  HT/PER
                 (UTC)          (F)     (DEG/KT/KT) (MB)    (MI)  (FT/S)
NY HARB ENTRANCE 0100            36 38  310/ 21/ 25 1025.0          4/ 4
4S FIRE IS       0000               32                N/A           3/ 8
20S FIRE ISLAND  0000               37              1023.8          4/ 5
23SW MTP         0100                                 N/A           5/ 9
HUDSON CANYON    NOT AVBL
EXECUTION ROCKS  NOT AVBL
WESTERN LI SOUND NOT AVBL
CENTRAL LI SOUND NOT AVBL
EASTERN LI SOUND NOT AVBL
ROBBINS REEF     0100                   310/ 12/ 16   N/A
$$


>>>>>>>>>>>>>>>>>>>>>>>>>>>> KEY <<<<<<<<<<<<<<<<<<<<<<<<<<<
>                                                          <
>     SKY/WX - SKY CONDITION/PRESENT WEATHER               <
>     TMP    - TEMPERATURE IN FAHRENHEIT                   <
>     DP     - DEWPOINT IN FAHRENHEIT                      <
>     RH     - RELATIVE HUMIDITY IN PERCENT                <
>     WIND   - DIRECTION AND SPEED IN MPH                  <
>     PRES   - MEAN SEA LEVEL PRESSURE IN INCHES OF HG     <
>     WCI    - WIND CHILL INDEX                            <
>     VSB    - VISIBILITY IN MILES                         <
>     HX     - HEAT INDEX                                  <
>     TC     - TEMPERATURE IN CELSIUS                      <
>     VRB    - VARIABLE WIND DIRECTION                     <
>                                                          <
>>>>>>>>>>>>>>>>>>>>>>>>>>>> KEY <<<<<<<<<<<<<<<<<<<<<<<<<<<





USA.gov is the U.S. government's official web portal to all federal, state and local government web resources and services.